Location: Huntsville
(41.2590°N, 111.7678°W)
Time: 09:14:08
(UTC+00:00)

Vanguard 2 - All Passes

Search period start: 15 June 2021 00:00
Search period end: 25 June 2021 00:00
Orbit: 552 x 2937 km, 32.9° (Epoch: 14 June)

Date Brightness Start Highest point End Pass type
(mag) Time Alt. Az. Time Alt. Az. Time Alt. Az.
15 Jun - 00:17:58 10° SSW 00:26:06 20° SSE 00:32:11 10° ESE daylight
15 Jun - 02:26:24 10° SW 02:35:25 34° S 02:41:15 10° ESE daylight
15 Jun - 04:37:04 10° WSW 04:43:55 38° S 04:48:29 10° ESE visible
15 Jun - 06:47:51 10° WSW 06:51:28 19° SSW 06:54:30 10° SSE visible
16 Jun - 00:34:02 10° SSW 00:43:49 26° SSE 00:50:41 10° ESE daylight
16 Jun - 02:43:45 10° WSW 02:53:07 40° S 02:59:00 10° ESE daylight
16 Jun - 04:54:49 10° WSW 05:01:29 36° SSW 05:05:58 10° SE visible
16 Jun - 07:06:13 10° WSW 07:08:49 14° SSW 07:11:07 10° S visible
16 Jun - 22:44:30 10° S 22:51:36 15° SSE 22:57:30 10° ESE daylight
17 Jun - 00:50:39 10° SW 01:01:33 32° SSE 01:08:48 10° ESE daylight
17 Jun - 03:01:17 10° WSW 03:10:46 44° S 03:16:39 10° ESE daylight
17 Jun - 05:12:39 10° WSW 05:18:59 33° SSW 05:23:21 10° SE visible
17 Jun - 22:59:22 10° SSW 23:09:18 21° SSE 23:16:57 10° ESE daylight
18 Jun - 01:07:38 10° SW 01:19:15 38° SSE 01:26:42 10° E daylight
18 Jun - 03:18:57 10° WSW 03:28:24 46° S 03:34:14 10° ESE daylight
18 Jun - 05:30:35 10° WSW 05:36:26 28° SSW 05:40:35 10° SE visible
18 Jun - 23:15:14 10° SSW 23:26:59 27° SSE 23:35:33 10° ESE daylight
19 Jun - 01:24:55 10° SW 01:36:57 44° S 01:44:29 10° E daylight
19 Jun - 03:36:44 10° WSW 03:46:02 45° S 03:51:46 10° ESE visible
19 Jun - 05:48:40 10° WSW 05:53:47 22° SSW 05:57:35 10° SSE visible
19 Jun - 21:26:34 10° S 21:34:20 15° SE 21:41:06 10° ESE daylight
19 Jun - 23:31:40 10° SW 23:44:41 34° SSE 23:53:45 10° E daylight
20 Jun - 01:42:24 10° WSW 01:54:39 48° S 02:02:09 10° ESE daylight
20 Jun - 03:54:34 10° W 04:03:35 43° SSW 04:09:13 10° ESE visible
20 Jun - 06:07:03 10° WSW 06:11:03 17° SW 06:14:15 10° S visible
20 Jun - 21:41:02 10° S 21:51:57 21° SSE 22:00:54 10° ESE daylight
20 Jun - 23:48:31 10° SW 00:02:23 40° SSE 00:11:43 10° E daylight
21 Jun - 02:00:02 10° WSW 02:12:20 51° S 02:19:46 10° ESE daylight
21 Jun - 04:12:28 10° W 04:21:04 38° SSW 04:26:34 10° SE visible
21 Jun - 06:26:16 10° WSW 06:28:13 11° SW 06:29:58 10° SSW visible
21 Jun - 21:56:38 10° SSW 22:09:33 27° SSE 22:19:43 10° E daylight
22 Jun - 00:05:40 10° SW 00:20:06 46° SSE 00:29:32 10° E daylight
22 Jun - 02:17:48 10° WSW 02:30:00 52° S 02:37:20 10° ESE daylight
22 Jun - 04:30:28 10° W 04:38:30 32° SSW 04:43:45 10° SE visible
22 Jun - 20:09:42 10° SSE 20:16:43 14° SE 20:23:15 10° ESE daylight
22 Jun - 22:12:51 10° SSW 22:27:11 34° SSE 22:38:04 10° E daylight
23 Jun - 00:23:04 10° WSW 00:37:49 51° S 00:47:17 10° E daylight
23 Jun - 02:35:38 10° W 02:47:37 51° S 02:54:52 10° ESE daylight
23 Jun - 04:48:36 10° W 04:55:47 26° SSW 05:00:45 10° SSE visible
23 Jun - 20:23:25 10° S 20:34:11 20° SE 20:43:49 10° ESE daylight
23 Jun - 22:29:32 10° SW 22:44:49 40° SSE 22:56:08 10° E daylight
24 Jun - 00:40:39 10° WSW 00:55:32 55° S 01:04:57 10° E daylight
24 Jun - 02:53:32 10° W 03:05:12 48° SSW 03:12:17 10° SE daylight
24 Jun - 05:06:58 10° W 05:12:59 20° SW 05:17:25 10° S visible
24 Jun - 20:38:38 10° SSW 20:51:39 26° SE 21:02:59 10° E daylight
24 Jun - 22:46:32 10° SW 23:02:30 47° SSE 23:14:02 10° E daylight
